TimeMST,TemperatureF,Dew PointF,Humidity,Sea Level PressureIn,VisibilityMPH,Wind Direction,Wind SpeedMPH,Gust SpeedMPH,PrecipitationIn,Events,Conditions,WindDirDegrees,DateUTC
12:53 AM,46.9,32.0,56,29.71,10.0,WSW,10.4,-,N/A,,Clear,240,2012-11-18 07:53:00
1:53 AM,46.9,32.0,56,29.70,10.0,WSW,6.9,-,N/A,,Partly Cloudy,240,2012-11-18 08:53:00
2:53 AM,48.0,32.0,54,29.69,10.0,Variable,4.6,-,N/A,,Clear,0,2012-11-18 09:53:00
3:53 AM,48.9,33.1,54,29.66,10.0,SSW,9.2,-,N/A,,Scattered Clouds,200,2012-11-18 10:53:00
4:53 AM,48.9,34.0,56,29.65,10.0,SW,11.5,21.9,N/A,,Overcast,220,2012-11-18 11:53:00
5:53 AM,48.9,34.0,56,29.63,10.0,SW,26.5,35.7,N/A,,Clear,220,2012-11-18 12:53:00
6:53 AM,48.0,32.0,54,29.66,10.0,SW,19.6,-,N/A,,Clear,230,2012-11-18 13:53:00
7:53 AM,50.0,32.0,50,29.66,10.0,SW,31.1,41.4,N/A,,Clear,220,2012-11-18 14:53:00
8:53 AM,52.0,30.0,43,29.68,10.0,SSW,31.1,42.6,N/A,,Partly Cloudy,210,2012-11-18 15:53:00
9:53 AM,51.1,30.0,44,29.76,10.0,WNW,16.1,26.5,N/A,,Overcast,290,2012-11-18 16:53:00
10:53 AM,50.0,34.0,54,29.77,9.0,West,28.8,39.1,0.00,Rain,Light Rain,270,2012-11-18 17:53:00
11:53 AM,54.0,30.9,41,29.79,-9999.0,West,19.6,-,0.00,,Mostly Cloudy,280,2012-11-18 18:53:00
12:53 PM,46.9,32.0,56,29.80,-9999.0,West,21.9,32.2,0.00,,Overcast,260,2012-11-18 19:53:00
1:37 PM,44.6,35.6,71,29.84,-9999.0,West,19.6,27.6,0.04,Rain,Light Rain,270,2012-11-18 20:37:00
1:45 PM,44.6,35.6,71,29.84,-9999.0,West,13.8,24.2,0.05,Rain,Light Rain,270,2012-11-18 20:45:00
1:53 PM,44.1,36.0,73,29.84,-9999.0,West,13.8,-,0.05,,Overcast,260,2012-11-18 20:53:00
2:53 PM,43.0,35.1,74,29.87,-9999.0,WSW,16.1,-,N/A,,Overcast,240,2012-11-18 21:53:00
3:53 PM,41.0,33.1,73,29.88,-9999.0,SW,13.8,-,0.00,,Scattered Clouds,230,2012-11-18 22:53:00
4:53 PM,39.9,30.9,70,29.89,-9999.0,West,5.8,-,N/A,,Clear,270,2012-11-18 23:53:00
5:53 PM,42.1,28.9,60,29.90,-9999.0,WNW,15.0,-,N/A,,Clear,290,2012-11-19 00:53:00
6:53 PM,41.0,28.0,60,29.96,-9999.0,WNW,6.9,-,N/A,,Scattered Clouds,300,2012-11-19 01:53:00
7:53 PM,36.0,28.0,73,29.98,-9999.0,Calm,Calm,-,N/A,,Clear,0,2012-11-19 02:53:00
8:53 PM,35.1,28.0,76,29.99,-9999.0,East,4.6,-,N/A,,Scattered Clouds,80,2012-11-19 03:53:00
9:53 PM,34.0,27.0,75,30.01,-9999.0,Calm,Calm,-,N/A,,Clear,0,2012-11-19 04:53:00
10:53 PM,36.0,27.0,70,30.01,-9999.0,Calm,Calm,-,N/A,,Clear,0,2012-11-19 05:53:00
11:53 PM,39.0,24.1,55,30.00,-9999.0,SW,8.1,-,N/A,,Clear,220,2012-11-19 06:53:00